Time,TemperatureF,DewpointF,PressureIn,WindDirection,WindDirectionDegrees,WindSpeedMPH,WindSpeedGustMPH,Humidity,HourlyPrecipIn,Conditions,Clouds,dailyrainin,SoftwareType,DateUTC
2013-01-07 00:03:00,12.7,10.1,30.30,SW,227,0.0,0.0,89,0.00,,,0.00,Wunderground v.1.15,2013-01-07 06:03:00,
2013-01-07 00:10:00,12.6,10.0,30.29,SW,216,0.0,0.0,89,0.00,,,0.00,Wunderground v.1.15,2013-01-07 06:10:00,
2013-01-07 00:16:00,12.5,9.9,30.29,SW,216,0.0,0.0,89,0.00,,,0.00,Wunderground v.1.15,2013-01-07 06:16:00,
2013-01-07 00:22:00,12.5,9.9,30.29,SW,216,0.0,0.0,89,0.00,,,0.00,Wunderground v.1.15,2013-01-07 06:22:00,
2013-01-07 00:28:00,12.5,9.9,30.29,SW,216,0.0,0.0,89,0.00,,,0.00,Wunderground v.1.15,2013-01-07 06:28:00,
2013-01-07 00:34:00,12.4,9.8,30.28,SW,216,0.0,0.0,89,0.00,,,0.00,Wunderground v.1.15,2013-01-07 06:34:00,
2013-01-07 00:40:00,12.4,9.8,30.28,SW,216,0.0,0.0,89,0.00,,,0.00,Wunderground v.1.15,2013-01-07 06:40:00,
2013-01-07 00:46:00,12.4,10.0,30.28,SW,216,0.0,0.0,90,0.00,,,0.00,Wunderground v.1.15,2013-01-07 06:46:00,
2013-01-07 00:52:00,12.5,10.1,30.28,SW,217,0.0,0.0,90,0.00,,,0.00,Wunderground v.1.15,2013-01-07 06:52:00,
2013-01-07 00:58:00,12.6,10.2,30.28,SW,223,0.0,0.0,90,0.00,,,0.00,Wunderground v.1.15,2013-01-07 06:58:00,
2013-01-07 01:04:00,12.7,10.1,30.28,SW,236,0.0,0.0,89,0.00,,,0.00,Wunderground v.1.15,2013-01-07 07:04:00,
2013-01-07 01:10:00,12.6,10.0,30.28,SW,236,0.0,0.0,89,0.00,,,0.00,Wunderground v.1.15,2013-01-07 07:10:00,
2013-01-07 01:16:00,12.6,10.0,30.28,SW,217,0.0,0.0,89,0.00,,,0.00,Wunderground v.1.15,2013-01-07 07:16:00,
2013-01-07 01:22:00,12.5,9.9,30.28,SW,219,0.0,0.0,89,0.00,,,0.00,Wunderground v.1.15,2013-01-07 07:22:00,
2013-01-07 01:28:00,12.5,9.9,30.28,SW,219,0.0,0.0,89,0.00,,,0.00,Wunderground v.1.15,2013-01-07 07:28:00,
2013-01-07 01:34:00,12.5,9.9,30.28,SW,220,0.0,0.0,89,0.00,,,0.00,Wunderground v.1.15,2013-01-07 07:34:00,
2013-01-07 01:40:00,12.5,10.1,30.28,SW,215,0.0,0.0,90,0.00,,,0.00,Wunderground v.1.15,2013-01-07 07:40:00,
2013-01-07 01:46:00,12.6,10.2,30.27,SW,215,0.0,0.0,90,0.00,,,0.00,Wunderground v.1.15,2013-01-07 07:46:00,
2013-01-07 01:52:00,12.7,10.3,30.28,SW,215,0.0,0.0,90,0.00,,,0.00,Wunderground v.1.15,2013-01-07 07:52:00,
2013-01-07 01:58:00,12.8,10.4,30.28,SSW,211,0.0,0.0,90,0.00,,,0.00,Wunderground v.1.15,2013-01-07 07:58:00,
2013-01-07 03:30:00,13.4,11.0,30.27,SW,223,0.0,0.0,90,0.00,,,0.00,Wunderground v.1.15,2013-01-07 09:30:00,
2013-01-07 03:36:00,13.5,10.9,30.27,SSW,196,0.0,0.0,89,0.00,,,0.00,Wunderground v.1.15,2013-01-07 09:36:00,
2013-01-07 03:42:00,13.6,11.0,30.27,SSW,196,0.0,0.0,89,0.00,,,0.00,Wunderground v.1.15,2013-01-07 09:42:00,
2013-01-07 03:48:00,13.6,11.0,30.27,SW,226,0.0,0.0,89,0.00,,,0.00,Wunderground v.1.15,2013-01-07 09:48:00,
2013-01-07 03:54:00,13.6,11.0,30.27,SSW,211,0.0,0.0,89,0.00,,,0.00,Wunderground v.1.15,2013-01-07 09:54:00,
2013-01-07 04:02:00,13.7,11.1,30.27,SSW,198,0.0,0.0,89,0.00,,,0.00,Wunderground v.1.15,2013-01-07 10:02:00,
2013-01-07 04:08:00,13.6,10.7,30.27,WSW,239,0.0,0.0,88,0.00,,,0.00,Wunderground v.1.15,2013-01-07 10:08:00,
2013-01-07 04:14:00,13.5,10.6,30.27,South,182,0.0,0.0,88,0.00,,,0.00,Wunderground v.1.15,2013-01-07 10:14:00,
2013-01-07 04:20:00,13.4,10.5,30.26,SSW,195,0.0,0.0,88,0.00,,,0.00,Wunderground v.1.15,2013-01-07 10:20:00,
2013-01-07 04:26:00,13.3,10.4,30.26,SSW,201,0.0,0.0,88,0.00,,,0.00,Wunderground v.1.15,2013-01-07 10:26:00,
2013-01-07 04:32:00,13.4,10.8,30.26,South,185,0.0,0.0,89,0.00,,,0.00,Wunderground v.1.15,2013-01-07 10:32:00,
2013-01-07 04:38:00,13.6,11.0,30.25,SW,231,0.0,0.0,89,0.00,,,0.00,Wunderground v.1.15,2013-01-07 10:38:00,
2013-01-07 04:44:00,13.7,11.1,30.25,SW,214,0.0,0.0,89,0.00,,,0.00,Wunderground v.1.15,2013-01-07 10:44:00,
2013-01-07 04:50:00,13.6,11.0,30.25,SSW,210,0.0,0.0,89,0.00,,,0.00,Wunderground v.1.15,2013-01-07 10:50:00,
2013-01-07 04:56:00,13.7,11.1,30.25,SSW,209,0.0,0.0,89,0.00,,,0.00,Wunderground v.1.15,2013-01-07 10:56:00,
2013-01-07 05:02:00,14.3,11.9,30.24,SW,215,0.0,0.0,90,0.00,,,0.00,Wunderground v.1.15,2013-01-07 11:02:00,
2013-01-07 05:08:00,14.7,12.0,30.25,SSW,209,0.0,0.0,89,0.00,,,0.00,Wunderground v.1.15,2013-01-07 11:08:00,
2013-01-07 05:14:00,15.1,12.4,30.25,WSW,248,0.0,0.0,89,0.00,,,0.00,Wunderground v.1.15,2013-01-07 11:14:00,
2013-01-07 05:20:00,15.4,12.5,30.24,SW,221,0.0,0.0,88,0.00,,,0.00,Wunderground v.1.15,2013-01-07 11:20:00,
2013-01-07 05:26:00,15.5,12.6,30.24,SW,226,0.0,0.0,88,0.00,,,0.00,Wunderground v.1.15,2013-01-07 11:26:00,
2013-01-07 05:32:00,15.7,12.8,30.23,SSW,204,0.0,0.0,88,0.00,,,0.00,Wunderground v.1.15,2013-01-07 11:32:00,
2013-01-07 05:38:00,15.8,12.9,30.23,South,188,0.0,0.0,88,0.00,,,0.00,Wunderground v.1.15,2013-01-07 11:38:00,
2013-01-07 05:44:00,16.0,12.8,30.23,SSW,199,0.0,0.0,87,0.00,,,0.00,Wunderground v.1.15,2013-01-07 11:44:00,
2013-01-07 05:50:00,16.2,13.0,30.22,SSW,204,0.0,0.0,87,0.00,,,0.00,Wunderground v.1.15,2013-01-07 11:50:00,
2013-01-07 05:56:00,16.2,13.0,30.22,SSW,211,0.0,0.0,87,0.00,,,0.00,Wunderground v.1.15,2013-01-07 11:56:00,
2013-01-07 06:01:00,16.2,13.0,30.22,SSW,200,0.0,0.0,87,0.00,,,0.00,Wunderground v.1.15,2013-01-07 12:01:00,
2013-01-07 06:08:00,16.5,13.3,30.22,South,190,0.0,0.0,87,0.00,,,0.00,Wunderground v.1.15,2013-01-07 12:08:00,
2013-01-07 06:14:00,16.9,13.4,30.21,SSE,161,0.0,0.0,86,0.00,,,0.00,Wunderground v.1.15,2013-01-07 12:14:00,
2013-01-07 06:20:00,17.1,13.6,30.22,South,186,0.0,0.0,86,0.00,,,0.00,Wunderground v.1.15,2013-01-07 12:20:00,
2013-01-07 06:26:00,17.1,13.4,30.21,SW,217,0.0,0.0,85,0.00,,,0.00,Wunderground v.1.15,2013-01-07 12:26:00,
2013-01-07 06:32:00,16.9,13.2,30.21,South,190,0.0,0.0,85,0.00,,,0.00,Wunderground v.1.15,2013-01-07 12:32:00,
2013-01-07 06:38:00,16.6,12.9,30.21,SSW,207,0.0,0.0,85,0.00,,,0.00,Wunderground v.1.15,2013-01-07 12:38:00,
2013-01-07 06:44:00,16.5,12.8,30.21,SW,219,0.0,0.0,85,0.00,,,0.00,Wunderground v.1.15,2013-01-07 12:44:00,
2013-01-07 06:50:00,16.5,13.0,30.20,WSW,243,0.0,0.0,86,0.00,,,0.00,Wunderground v.1.15,2013-01-07 12:50:00,
2013-01-07 06:55:00,16.8,13.3,30.20,SSW,201,0.0,0.0,86,0.00,,,0.00,Wunderground v.1.15,2013-01-07 12:55:00,
2013-01-07 07:02:00,17.2,13.7,30.20,SSW,203,0.0,0.0,86,0.00,,,0.00,Wunderground v.1.15,2013-01-07 13:02:00,
2013-01-07 07:08:00,17.3,13.8,30.20,South,178,0.0,0.0,86,0.00,,,0.00,Wunderground v.1.15,2013-01-07 13:08:00,
2013-01-07 07:14:00,17.6,14.1,30.19,SSW,192,0.0,0.0,86,0.00,,,0.00,Wunderground v.1.15,2013-01-07 13:14:00,
2013-01-07 07:20:00,17.8,14.3,30.18,SSW,195,0.0,0.0,86,0.00,,,0.00,Wunderground v.1.15,2013-01-07 13:20:00,
2013-01-07 07:26:00,18.2,14.7,30.18,WSW,238,0.0,0.0,86,0.00,,,0.00,Wunderground v.1.15,2013-01-07 13:26:00,
2013-01-07 07:32:00,18.7,15.2,30.18,South,190,0.0,0.0,86,0.00,,,0.00,Wunderground v.1.15,2013-01-07 13:32:00,
2013-01-07 07:38:00,18.8,15.0,30.18,SSW,194,0.0,0.0,85,0.00,,,0.00,Wunderground v.1.15,2013-01-07 13:38:00,
2013-01-07 07:44:00,18.7,14.9,30.19,SW,217,0.0,0.0,85,0.00,,,0.00,Wunderground v.1.15,2013-01-07 13:44:00,
2013-01-07 07:50:00,18.8,15.0,30.19,SSW,213,0.0,0.0,85,0.00,,,0.00,Wunderground v.1.15,2013-01-07 13:50:00,
2013-01-07 07:56:00,19.0,15.5,30.19,SSW,202,0.0,0.0,86,0.00,,,0.00,Wunderground v.1.15,2013-01-07 13:56:00,
2013-01-07 08:02:00,19.7,16.2,30.19,SW,221,0.0,0.0,86,0.00,,,0.00,Wunderground v.1.15,2013-01-07 14:02:00,
2013-01-07 08:08:00,19.9,16.1,30.19,SW,214,0.0,0.0,85,0.00,,,0.00,Wunderground v.1.15,2013-01-07 14:08:00,
2013-01-07 08:14:00,20.3,16.5,30.19,SW,215,0.0,0.0,85,0.00,,,0.00,Wunderground v.1.15,2013-01-07 14:14:00,
2013-01-07 08:20:00,20.5,16.4,30.19,SW,236,0.0,0.0,84,0.00,,,0.00,Wunderground v.1.15,2013-01-07 14:20:00,
2013-01-07 08:26:00,20.7,16.6,30.19,SW,230,0.0,0.0,84,0.00,,,0.00,Wunderground v.1.15,2013-01-07 14:26:00,
2013-01-07 08:32:00,21.1,17.0,30.19,SSW,200,0.0,0.0,84,0.00,,,0.00,Wunderground v.1.15,2013-01-07 14:32:00,
2013-01-07 08:38:00,21.6,17.5,30.19,SSW,212,0.0,0.0,84,0.00,,,0.00,Wunderground v.1.15,2013-01-07 14:38:00,
2013-01-07 08:44:00,22.0,17.6,30.19,WSW,237,0.0,0.0,83,0.00,,,0.00,Wunderground v.1.15,2013-01-07 14:44:00,
2013-01-07 08:50:00,22.2,17.8,30.19,SSW,202,0.0,0.0,83,0.00,,,0.00,Wunderground v.1.15,2013-01-07 14:50:00,
2013-01-07 08:56:00,22.4,18.0,30.18,South,180,0.0,0.0,83,0.00,,,0.00,Wunderground v.1.15,2013-01-07 14:56:00,
2013-01-07 09:02:00,22.6,17.9,30.19,South,187,0.0,0.0,82,0.00,,,0.00,Wunderground v.1.15,2013-01-07 15:02:00,
2013-01-07 09:08:00,22.9,18.2,30.18,WSW,250,0.0,0.0,82,0.00,,,0.00,Wunderground v.1.15,2013-01-07 15:08:00,
2013-01-07 09:14:00,23.2,18.2,30.18,SW,224,0.0,0.0,81,0.00,,,0.00,Wunderground v.1.15,2013-01-07 15:14:00,
2013-01-07 09:20:00,23.6,18.6,30.18,SW,217,0.0,0.0,81,0.00,,,0.00,Wunderground v.1.15,2013-01-07 15:20:00,
2013-01-07 09:26:00,24.2,18.9,30.19,SSW,211,0.0,0.0,80,0.00,,,0.00,Wunderground v.1.15,2013-01-07 15:26:00,
2013-01-07 09:32:00,24.6,19.0,30.19,SW,226,0.0,0.0,79,0.00,,,0.00,Wunderground v.1.15,2013-01-07 15:32:00,
2013-01-07 09:38:00,25.0,19.1,30.18,South,190,0.0,0.0,78,0.00,,,0.00,Wunderground v.1.15,2013-01-07 15:38:00,
2013-01-07 09:44:00,25.2,19.3,30.18,SW,217,0.0,0.0,78,0.00,,,0.00,Wunderground v.1.15,2013-01-07 15:44:00,
2013-01-07 09:50:00,25.5,19.3,30.18,SSW,206,0.0,0.0,77,0.00,,,0.00,Wunderground v.1.15,2013-01-07 15:50:00,
2013-01-07 09:56:00,25.8,19.3,30.17,SSW,201,0.0,0.0,76,0.00,,,0.00,Wunderground v.1.15,2013-01-07 15:56:00,
2013-01-07 10:01:00,25.9,19.4,30.17,South,179,0.0,0.0,76,0.00,,,0.00,Wunderground v.1.15,2013-01-07 16:01:00,
2013-01-07 10:08:00,26.0,19.5,30.17,South,173,0.0,0.0,76,0.00,,,0.00,Wunderground v.1.15,2013-01-07 16:08:00,
2013-01-07 10:14:00,26.2,19.7,30.18,South,190,0.0,0.0,76,0.00,,,0.00,Wunderground v.1.15,2013-01-07 16:14:00,
2013-01-07 10:20:00,26.6,19.7,30.17,SSW,195,0.0,0.0,75,0.00,,,0.00,Wunderground v.1.15,2013-01-07 16:20:00,
2013-01-07 10:26:00,27.1,20.2,30.16,South,185,0.0,0.0,75,0.00,,,0.00,Wunderground v.1.15,2013-01-07 16:26:00,
2013-01-07 10:32:00,27.6,20.4,30.16,SW,217,0.0,0.0,74,0.00,,,0.00,Wunderground v.1.15,2013-01-07 16:32:00,
2013-01-07 10:38:00,28.2,20.0,30.15,SSW,213,0.0,0.0,71,0.00,,,0.00,Wunderground v.1.15,2013-01-07 16:38:00,
2013-01-07 10:44:00,28.9,20.7,30.15,South,178,0.0,0.0,71,0.00,,,0.00,Wunderground v.1.15,2013-01-07 16:44:00,
2013-01-07 10:50:00,29.5,20.9,30.15,WSW,246,0.0,0.0,70,0.00,,,0.00,Wunderground v.1.15,2013-01-07 16:50:00,
2013-01-07 10:56:00,29.9,20.6,30.14,SW,232,0.0,0.0,68,0.00,,,0.00,Wunderground v.1.15,2013-01-07 16:56:00,
2013-01-07 11:02:00,30.1,21.2,30.14,WSW,253,0.0,0.0,69,0.00,,,0.00,Wunderground v.1.15,2013-01-07 17:02:00,
2013-01-07 11:08:00,30.5,21.2,30.14,WNW,285,0.0,0.0,68,0.00,,,0.00,Wunderground v.1.15,2013-01-07 17:08:00,
2013-01-07 11:14:00,30.7,21.4,30.14,South,191,0.0,0.0,68,0.00,,,0.00,Wunderground v.1.15,2013-01-07 17:14:00,
2013-01-07 11:20:00,30.8,21.8,30.14,SW,225,0.0,0.0,69,0.00,,,0.00,Wunderground v.1.15,2013-01-07 17:20:00,
2013-01-07 11:26:00,30.8,21.1,30.13,SSW,208,0.0,0.0,67,0.00,,,0.00,Wunderground v.1.15,2013-01-07 17:26:00,
2013-01-07 11:32:00,30.7,21.7,30.12,SSW,208,0.0,0.0,69,0.00,,,0.00,Wunderground v.1.15,2013-01-07 17:32:00,
2013-01-07 11:38:00,30.9,21.9,30.12,SSW,192,0.0,0.0,69,0.00,,,0.00,Wunderground v.1.15,2013-01-07 17:38:00,
2013-01-07 11:44:00,31.2,21.9,30.12,SW,219,0.0,0.0,68,0.00,,,0.00,Wunderground v.1.15,2013-01-07 17:44:00,
2013-01-07 11:49:00,31.3,22.6,30.12,WSW,238,0.0,0.0,70,0.00,,,0.00,Wunderground v.1.15,2013-01-07 17:49:00,
2013-01-07 11:56:00,31.2,22.5,30.11,SSE,161,0.0,0.0,70,0.00,,,0.00,Wunderground v.1.15,2013-01-07 17:56:00,
2013-01-07 12:02:00,31.2,22.5,30.10,South,189,0.0,0.0,70,0.00,,,0.00,Wunderground v.1.15,2013-01-07 18:02:00,
2013-01-07 12:08:00,31.4,22.7,30.10,SSW,197,0.0,0.0,70,0.00,,,0.00,Wunderground v.1.15,2013-01-07 18:08:00,
2013-01-07 12:14:00,31.8,22.8,30.09,SSW,199,0.0,0.0,69,0.00,,,0.00,Wunderground v.1.15,2013-01-07 18:14:00,
2013-01-07 12:20:00,32.0,23.3,30.09,SSW,207,0.0,0.0,70,0.00,,,0.00,Wunderground v.1.15,2013-01-07 18:20:00,
2013-01-07 12:26:00,32.1,23.4,30.09,SW,225,0.0,0.0,70,0.00,,,0.00,Wunderground v.1.15,2013-01-07 18:26:00,
2013-01-07 12:32:00,32.4,23.4,30.08,South,182,0.0,0.0,69,0.00,,,0.00,Wunderground v.1.15,2013-01-07 18:32:00,
2013-01-07 12:38:00,32.5,23.5,30.08,SW,218,0.0,0.0,69,0.00,,,0.00,Wunderground v.1.15,2013-01-07 18:38:00,
2013-01-07 12:44:00,32.8,23.7,30.08,West,259,0.0,0.0,69,0.00,,,0.00,Wunderground v.1.15,2013-01-07 18:44:00,
2013-01-07 12:50:00,33.3,23.9,30.08,SW,225,0.0,0.0,68,0.00,,,0.00,Wunderground v.1.15,2013-01-07 18:50:00,
2013-01-07 12:56:00,33.8,24.7,30.08,SSW,192,0.0,0.0,69,0.00,,,0.00,Wunderground v.1.15,2013-01-07 18:56:00,
2013-01-07 13:02:00,34.1,24.6,30.08,SSW,202,0.0,0.0,68,0.00,,,0.00,Wunderground v.1.15,2013-01-07 19:02:00,
2013-01-07 13:08:00,33.9,24.4,30.08,South,191,0.0,0.0,68,0.00,,,0.00,Wunderground v.1.15,2013-01-07 19:08:00,
2013-01-07 13:14:00,34.0,24.5,30.08,WNW,303,0.0,0.0,68,0.00,,,0.00,Wunderground v.1.15,2013-01-07 19:14:00,
2013-01-07 13:20:00,34.1,24.6,30.08,WSW,257,0.0,0.0,68,0.00,,,0.00,Wunderground v.1.15,2013-01-07 19:20:00,
2013-01-07 13:26:00,33.9,24.4,30.08,SW,234,0.0,0.0,68,0.00,,,0.00,Wunderground v.1.15,2013-01-07 19:26:00,
2013-01-07 13:32:00,33.9,24.4,30.08,South,178,0.0,0.0,68,0.00,,,0.00,Wunderground v.1.15,2013-01-07 19:32:00,
2013-01-07 13:38:00,33.7,24.6,30.07,SW,221,0.0,0.0,69,0.00,,,0.01,Wunderground v.1.15,2013-01-07 19:38:00,
2013-01-07 13:44:00,33.7,24.6,30.07,SSW,200,0.0,0.0,69,0.00,,,0.01,Wunderground v.1.15,2013-01-07 19:44:00,
2013-01-07 13:50:00,33.9,24.8,30.07,SW,234,0.0,0.0,69,0.00,,,0.01,Wunderground v.1.15,2013-01-07 19:50:00,
2013-01-07 13:56:00,34.1,25.0,30.07,SSW,207,0.0,0.0,69,0.00,,,0.01,Wunderground v.1.15,2013-01-07 19:56:00,
2013-01-07 14:02:00,34.2,25.1,30.07,West,265,0.0,0.0,69,0.00,,,0.01,Wunderground v.1.15,2013-01-07 20:02:00,
2013-01-07 14:08:00,34.4,25.3,30.07,SSW,202,0.0,0.0,69,0.00,,,0.01,Wunderground v.1.15,2013-01-07 20:08:00,
2013-01-07 14:14:00,34.4,24.9,30.07,SSW,207,0.0,0.0,68,0.00,,,0.01,Wunderground v.1.15,2013-01-07 20:14:00,
2013-01-07 14:20:00,34.4,25.3,30.07,South,179,0.0,0.0,69,0.00,,,0.01,Wunderground v.1.15,2013-01-07 20:20:00,
2013-01-07 14:26:00,34.4,25.3,30.06,South,180,0.0,0.0,69,0.00,,,0.01,Wunderground v.1.15,2013-01-07 20:26:00,
2013-01-07 14:32:00,34.4,25.3,30.07,SW,220,0.0,0.0,69,0.00,,,0.01,Wunderground v.1.15,2013-01-07 20:32:00,
2013-01-07 14:38:00,34.4,25.6,30.07,SSW,194,0.0,0.0,70,0.00,,,0.01,Wunderground v.1.15,2013-01-07 20:38:00,
2013-01-07 14:44:00,34.4,25.6,30.07,SW,229,0.0,0.0,70,0.00,,,0.01,Wunderground v.1.15,2013-01-07 20:44:00,
2013-01-07 14:50:00,34.5,25.7,30.07,South,175,0.0,0.0,70,0.00,,,0.02,Wunderground v.1.15,2013-01-07 20:50:00,
2013-01-07 14:56:00,34.5,25.7,30.07,South,185,0.0,0.0,70,0.00,,,0.02,Wunderground v.1.15,2013-01-07 20:56:00,
2013-01-07 15:02:00,34.4,25.6,30.08,WSW,255,0.0,0.0,70,0.00,,,0.02,Wunderground v.1.15,2013-01-07 21:02:00,
2013-01-07 15:08:00,34.4,25.6,30.07,SSW,196,0.0,0.0,70,0.00,,,0.02,Wunderground v.1.15,2013-01-07 21:08:00,
2013-01-07 15:14:00,34.3,25.9,30.07,SSW,207,0.0,0.0,71,0.00,,,0.02,Wunderground v.1.15,2013-01-07 21:14:00,
2013-01-07 15:20:00,34.2,26.1,30.08,West,279,0.0,0.0,72,0.00,,,0.02,Wunderground v.1.15,2013-01-07 21:20:00,
2013-01-07 15:26:00,34.1,26.0,30.07,SW,236,0.0,0.0,72,0.00,,,0.02,Wunderground v.1.15,2013-01-07 21:26:00,
2013-01-07 15:32:00,34.1,26.0,30.07,SSW,210,0.0,0.0,72,0.00,,,0.02,Wunderground v.1.15,2013-01-07 21:32:00,
2013-01-07 15:38:00,34.1,26.0,30.07,SW,233,0.0,0.0,72,0.00,,,0.02,Wunderground v.1.15,2013-01-07 21:38:00,
2013-01-07 15:44:00,34.1,26.0,30.08,SSE,148,0.0,0.0,72,0.00,,,0.02,Wunderground v.1.15,2013-01-07 21:44:00,
2013-01-07 15:50:00,34.1,26.0,30.08,SW,236,0.0,0.0,72,0.00,,,0.02,Wunderground v.1.15,2013-01-07 21:50:00,
2013-01-07 15:56:00,34.0,25.9,30.08,SW,234,0.0,0.0,72,0.00,,,0.02,Wunderground v.1.15,2013-01-07 21:56:00,
2013-01-07 16:02:00,34.0,25.9,30.07,NW,312,0.0,0.0,72,0.00,,,0.02,Wunderground v.1.15,2013-01-07 22:02:00,
2013-01-07 16:08:00,34.0,25.9,30.07,SW,221,0.0,0.0,72,0.00,,,0.02,Wunderground v.1.15,2013-01-07 22:08:00,
2013-01-07 16:14:00,34.0,25.9,30.07,SSW,210,0.0,0.0,72,0.00,,,0.02,Wunderground v.1.15,2013-01-07 22:14:00,
2013-01-07 16:20:00,33.9,26.2,30.07,West,259,0.0,0.0,73,0.00,,,0.02,Wunderground v.1.15,2013-01-07 22:20:00,
2013-01-07 16:26:00,33.7,26.0,30.07,SSW,204,0.0,0.0,73,0.00,,,0.02,Wunderground v.1.15,2013-01-07 22:26:00,
2013-01-07 16:32:00,33.5,25.8,30.07,SSW,193,0.0,0.0,73,0.00,,,0.02,Wunderground v.1.15,2013-01-07 22:32:00,
2013-01-07 16:37:00,33.3,25.9,30.07,SW,219,0.0,0.0,74,0.00,,,0.02,Wunderground v.1.15,2013-01-07 22:37:00,
2013-01-07 16:44:00,33.0,25.6,30.08,WSW,257,0.0,0.0,74,0.00,,,0.02,Wunderground v.1.15,2013-01-07 22:44:00,
2013-01-07 16:50:00,32.9,25.8,30.08,WSW,252,0.0,0.0,75,0.00,,,0.02,Wunderground v.1.15,2013-01-07 22:50:00,
2013-01-07 16:56:00,32.6,25.6,30.08,SW,236,0.0,0.0,75,0.00,,,0.02,Wunderground v.1.15,2013-01-07 22:56:00,
2013-01-07 17:01:00,32.4,25.4,30.08,SW,220,0.0,0.0,75,0.00,,,0.02,Wunderground v.1.15,2013-01-07 23:01:00,
2013-01-07 17:08:00,32.3,25.6,30.08,SSW,192,0.0,0.0,76,0.00,,,0.02,Wunderground v.1.15,2013-01-07 23:08:00,
2013-01-07 17:14:00,32.1,25.4,30.08,SW,234,0.0,0.0,76,0.00,,,0.02,Wunderground v.1.15,2013-01-07 23:14:00,
2013-01-07 17:20:00,31.9,25.2,30.08,West,268,0.0,0.0,76,0.00,,,0.02,Wunderground v.1.15,2013-01-07 23:20:00,
2013-01-07 17:26:00,31.6,25.2,30.08,West,260,0.0,0.0,77,0.00,,,0.02,Wunderground v.1.15,2013-01-07 23:26:00,
2013-01-07 17:32:00,31.6,25.2,30.08,SSW,201,0.0,0.0,77,0.00,,,0.02,Wunderground v.1.15,2013-01-07 23:32:00,
2013-01-07 17:38:00,31.6,25.2,30.08,SSW,201,0.0,0.0,77,0.00,,,0.02,Wunderground v.1.15,2013-01-07 23:38:00,
2013-01-07 17:44:00,31.5,25.1,30.08,SW,215,0.0,0.0,77,0.00,,,0.02,Wunderground v.1.15,2013-01-07 23:44:00,
2013-01-07 17:50:00,31.4,25.0,30.08,SW,215,0.0,0.0,77,0.00,,,0.02,Wunderground v.1.15,2013-01-07 23:50:00,
2013-01-07 17:56:00,31.3,25.2,30.08,SW,214,0.0,0.0,78,0.00,,,0.02,Wunderground v.1.15,2013-01-07 23:56:00,
2013-01-07 18:02:00,31.1,25.0,30.08,South,191,0.0,0.0,78,0.00,,,0.02,Wunderground v.1.15,2013-01-08 00:02:00,
2013-01-07 18:08:00,31.0,24.9,30.08,SSW,198,0.0,0.0,78,0.00,,,0.02,Wunderground v.1.15,2013-01-08 00:08:00,
2013-01-07 18:14:00,31.1,25.3,30.08,SW,219,0.0,0.0,79,0.00,,,0.02,Wunderground v.1.15,2013-01-08 00:14:00,
2013-01-07 18:20:00,31.0,25.2,30.08,SW,214,0.0,0.0,79,0.00,,,0.02,Wunderground v.1.15,2013-01-08 00:20:00,
2013-01-07 18:26:00,30.9,25.2,30.08,SW,229,0.0,0.0,79,0.00,,,0.02,Wunderground v.1.15,2013-01-08 00:26:00,
2013-01-07 18:32:00,30.6,24.9,30.08,SW,231,0.0,0.0,79,0.00,,,0.02,Wunderground v.1.15,2013-01-08 00:32:00,
2013-01-07 18:38:00,30.5,25.1,30.08,SSW,206,0.0,0.0,80,0.00,,,0.02,Wunderground v.1.15,2013-01-08 00:38:00,
2013-01-07 18:43:00,30.4,25.0,30.08,SSW,192,0.0,0.0,80,0.00,,,0.02,Wunderground v.1.15,2013-01-08 00:43:00,
2013-01-07 18:50:00,30.3,24.9,30.08,SW,216,0.0,0.0,80,0.00,,,0.02,Wunderground v.1.15,2013-01-08 00:50:00,
2013-01-07 18:56:00,30.1,24.7,30.08,SSW,207,0.0,0.0,80,0.00,,,0.02,Wunderground v.1.15,2013-01-08 00:56:00,
2013-01-07 19:02:00,30.0,24.9,30.08,SW,216,0.0,0.0,81,0.00,,,0.02,Wunderground v.1.15,2013-01-08 01:02:00,
2013-01-07 19:08:00,29.9,24.8,30.08,SW,228,0.0,0.0,81,0.00,,,0.02,Wunderground v.1.15,2013-01-08 01:08:00,
2013-01-07 19:14:00,29.6,24.5,30.08,SW,227,0.0,0.0,81,0.00,,,0.02,Wunderground v.1.15,2013-01-08 01:14:00,
2013-01-07 19:20:00,29.3,24.5,30.08,SW,224,0.0,0.0,82,0.00,,,0.02,Wunderground v.1.15,2013-01-08 01:20:00,
2013-01-07 19:26:00,29.1,24.3,30.08,SW,230,0.0,0.0,82,0.00,,,0.02,Wunderground v.1.15,2013-01-08 01:26:00,
2013-01-07 19:32:00,29.0,24.5,30.07,SW,221,0.0,0.0,83,0.00,,,0.02,Wunderground v.1.15,2013-01-08 01:32:00,
2013-01-07 19:38:00,29.0,24.5,30.08,SW,215,0.0,0.0,83,0.00,,,0.02,Wunderground v.1.15,2013-01-08 01:38:00,
2013-01-07 19:44:00,28.9,24.4,30.08,South,188,0.0,0.0,83,0.00,,,0.02,Wunderground v.1.15,2013-01-08 01:44:00,
2013-01-07 19:50:00,28.8,24.3,30.07,South,185,0.0,0.0,83,0.00,,,0.02,Wunderground v.1.15,2013-01-08 01:50:00,
2013-01-07 19:56:00,28.7,24.2,30.07,SSW,211,0.0,0.0,83,0.00,,,0.02,Wunderground v.1.15,2013-01-08 01:56:00,
2013-01-07 20:02:00,28.6,24.4,30.07,SW,218,0.0,0.0,84,0.00,,,0.02,Wunderground v.1.15,2013-01-08 02:02:00,
2013-01-07 20:08:00,28.6,24.4,30.07,SW,230,0.0,0.0,84,0.00,,,0.02,Wunderground v.1.15,2013-01-08 02:08:00,
2013-01-07 20:14:00,28.5,24.3,30.07,SSW,208,0.0,0.0,84,0.00,,,0.02,Wunderground v.1.15,2013-01-08 02:14:00,
2013-01-07 20:20:00,28.5,24.3,30.08,WSW,242,0.0,0.0,84,0.00,,,0.02,Wunderground v.1.15,2013-01-08 02:20:00,
2013-01-07 20:26:00,28.5,24.3,30.07,SW,229,0.0,0.0,84,0.00,,,0.02,Wunderground v.1.15,2013-01-08 02:26:00,
2013-01-07 20:32:00,28.6,24.4,30.07,South,190,0.0,0.0,84,0.00,,,0.02,Wunderground v.1.15,2013-01-08 02:32:00,
2013-01-07 20:38:00,28.6,24.4,30.07,WSW,245,0.0,0.0,84,0.00,,,0.02,Wunderground v.1.15,2013-01-08 02:38:00,
2013-01-07 20:44:00,28.6,24.7,30.07,WSW,239,0.0,0.0,85,0.00,,,0.02,Wunderground v.1.15,2013-01-08 02:44:00,
2013-01-07 20:50:00,28.6,24.7,30.07,SSW,195,0.0,0.0,85,0.00,,,0.02,Wunderground v.1.15,2013-01-08 02:50:00,
2013-01-07 20:56:00,28.6,24.7,30.07,SW,221,0.0,0.0,85,0.00,,,0.02,Wunderground v.1.15,2013-01-08 02:56:00,
2013-01-07 21:02:00,28.6,24.7,30.07,West,267,0.0,0.0,85,0.00,,,0.02,Wunderground v.1.15,2013-01-08 03:02:00,
2013-01-07 21:08:00,28.7,24.8,30.07,SSW,203,0.0,0.0,85,0.00,,,0.02,Wunderground v.1.15,2013-01-08 03:08:00,
2013-01-07 21:14:00,28.8,24.9,30.07,SW,217,0.0,0.0,85,0.00,,,0.02,Wunderground v.1.15,2013-01-08 03:14:00,
2013-01-07 21:20:00,28.8,24.9,30.07,SW,229,0.0,0.0,85,0.00,,,0.02,Wunderground v.1.15,2013-01-08 03:20:00,
2013-01-07 21:26:00,28.8,24.9,30.07,WSW,246,0.0,0.0,85,0.00,,,0.02,Wunderground v.1.15,2013-01-08 03:26:00,
2013-01-07 21:32:00,28.8,24.9,30.07,WNW,283,0.0,0.0,85,0.00,,,0.02,Wunderground v.1.15,2013-01-08 03:32:00,
2013-01-07 21:38:00,28.8,24.9,30.07,West,263,0.0,0.0,85,0.00,,,0.02,Wunderground v.1.15,2013-01-08 03:38:00,
2013-01-07 21:43:00,28.9,25.0,30.08,WSW,246,0.0,0.0,85,0.00,,,0.02,Wunderground v.1.15,2013-01-08 03:43:00,
2013-01-07 21:50:00,28.9,25.0,30.08,WSW,238,0.0,0.0,85,0.00,,,0.02,Wunderground v.1.15,2013-01-08 03:50:00,
2013-01-07 21:56:00,29.1,25.2,30.08,SW,235,0.0,0.0,85,0.00,,,0.02,Wunderground v.1.15,2013-01-08 03:56:00,
2013-01-07 22:02:00,29.1,25.2,30.08,WSW,244,0.0,0.0,85,0.00,,,0.02,Wunderground v.1.15,2013-01-08 04:02:00,
2013-01-07 22:08:00,29.2,25.3,30.08,SW,225,0.0,0.0,85,0.00,,,0.02,Wunderground v.1.15,2013-01-08 04:08:00,
2013-01-07 22:14:00,29.2,25.3,30.08,SW,233,0.0,0.0,85,0.00,,,0.02,Wunderground v.1.15,2013-01-08 04:14:00,
2013-01-07 22:20:00,29.2,25.0,30.08,WSW,250,0.0,0.0,84,0.00,,,0.02,Wunderground v.1.15,2013-01-08 04:20:00,
2013-01-07 22:26:00,29.2,25.3,30.08,SW,233,0.0,0.0,85,0.00,,,0.02,Wunderground v.1.15,2013-01-08 04:26:00,
2013-01-07 22:32:00,29.3,25.1,30.07,WSW,238,0.0,0.0,84,0.00,,,0.02,Wunderground v.1.15,2013-01-08 04:32:00,
2013-01-07 22:38:00,29.3,25.1,30.07,SW,216,0.0,0.0,84,0.00,,,0.02,Wunderground v.1.15,2013-01-08 04:38:00,
2013-01-07 22:44:00,29.4,25.2,30.07,WSW,252,0.0,0.0,84,0.00,,,0.02,Wunderground v.1.15,2013-01-08 04:44:00,
2013-01-07 22:50:00,29.4,25.4,30.07,WSW,250,0.0,0.0,85,0.00,,,0.02,Wunderground v.1.15,2013-01-08 04:50:00,
2013-01-07 22:56:00,29.4,25.2,30.07,SSW,196,0.0,0.0,84,0.00,,,0.02,Wunderground v.1.15,2013-01-08 04:56:00,
2013-01-07 23:02:00,29.4,25.2,30.06,SSW,211,0.0,0.0,84,0.00,,,0.02,Wunderground v.1.15,2013-01-08 05:02:00,
2013-01-07 23:04:00,29.4,25.2,30.06,SSW,211,0.0,0.0,84,0.00,,,0.02,Wunderground v.1.15,2013-01-08 05:04:00,
2013-01-07 23:10:00,29.4,25.2,30.07,SSW,213,0.0,0.0,84,0.00,,,0.02,Wunderground v.1.15,2013-01-08 05:10:00,
2013-01-07 23:16:00,29.2,25.0,30.07,SW,215,0.0,0.0,84,0.00,,,0.02,Wunderground v.1.15,2013-01-08 05:16:00,
2013-01-07 23:22:00,29.1,25.2,30.07,SSW,210,0.0,0.0,85,0.00,,,0.02,Wunderground v.1.15,2013-01-08 05:22:00,
2013-01-07 23:28:00,29.0,25.1,30.07,SSW,209,0.0,0.0,85,0.00,,,0.02,Wunderground v.1.15,2013-01-08 05:28:00,
2013-01-07 23:34:00,28.9,25.0,30.07,SW,219,0.0,0.0,85,0.00,,,0.02,Wunderground v.1.15,2013-01-08 05:34:00,
2013-01-07 23:36:00,28.9,25.0,30.07,SW,219,0.0,0.0,85,0.00,,,0.02,Wunderground v.1.15,2013-01-08 05:36:00,
2013-01-07 23:42:00,28.7,24.8,30.07,SW,219,0.0,0.0,85,0.00,,,0.02,Wunderground v.1.15,2013-01-08 05:42:00,
2013-01-07 23:48:00,28.6,24.7,30.07,SW,219,0.0,0.0,85,0.00,,,0.02,Wunderground v.1.15,2013-01-08 05:48:00,
2013-01-07 23:54:00,28.4,24.7,30.07,SW,219,0.0,0.0,86,0.00,,,0.02,Wunderground v.1.15,2013-01-08 05:54:00,